FLOCK 1E-12

Last updated on Tue Aug 09 2016 17:37:34 GMT+0000 (Coordinated Universal Time)

1 40739U 98067GR 16222.49857937 .09461812 12449-4 18591-3 0 9990 2 40739 51.6131 94.9874 0018850 251.5887 111.1438 16.45332099 61458

Satellite not in orbit